[Date Prev][Date Next][Thread Prev][Thread Next] - [Date Index][Thread Index][Author Index]
2 Line ISS Keps 9-15
- Subject: [sarex] 2 Line ISS Keps 9-15
- From: "Dave Larsen PhD" <doc@xxxxxxxxxxx>
- Date: Mon, 15 Sep 2003 05:22:34 -0700
ISS
1 25544U 98067A 03258.45124382 .00010418 00000-0 12107-3 0 5003
2 25544 51.6316 285.5808 0005709 248.0483 252.5067 15.62366743275105
----
Via the sarex mailing list at AMSAT.ORG courtesy of AMSAT-NA.
To unsubscribe, send "unsubscribe sarex" to Majordomo@amsat.org
AMSAT Home